Weather History for HEAX - June, 2013

Change the Weather History Date:

Friday, June 7, 2013

  Actual Average Record
Temperature  
Mean Temperature 78 °F -  
Max Temperature 87 °F 82 °F 91 °F (1997)
Min Temperature 70 °F 70 °F 64 °F (2004)
Cooling Degree Days 14    
Growing Degree Days 28 (Base 50)    
Moisture  
Dew Point 63 °F    
Average Humidity 60    
Maximum Humidity 88    
Minimum Humidity 27    
Precipitation  
Precipitation 0.00 in 0.00 in - ()
Sea Level Pressure  
Sea Level Pressure 29.99 in    
Wind  
Wind Speed 7 mph ()    
Max Wind Speed 14 mph    
Max Gust Speed -    
Visibility 6.0 miles    
Events      
Averages and records for this station are not official NWS values.
T = Trace of Precipitation, MM = Missing Value Source: Averaged Metar Reports

Daily Weather History Graph

Daily Weather History Graph

Search for Another Location

Airport or City:

Trip Planner

Search our weather history database for the weather conditions in past years. The results will help you decide how hot, cold, wet, or windy it might be!

Date:

Astronomy

Jun. 07, 2013 Rise Set
Actual Time 4:55 AM EET 7:02 PM EET
Civil Twilight 4:28 AM EET 7:30 PM EET
Nautical Twilight 3:54 AM EET 8:04 PM EET
Astronomical Twilight 3:18 AM EET 8:40 PM EET
Moon 3:59 AM EET (6/7) 6:03 PM EET (6/7)
Length of Visible Light 15h 02m
Length of Day
14h 06m
Waning Crescent, 1% of the Moon is Illuminated
Jun 7
Waning Crescent
Jun 8
New
Jun 16
First Quarter
Jun 23
Full
Jun 30
Last Quarter

Hourly Weather History & Observations

Time (EET) Temp. Heat Index Dew Point Humidity Pressure Visibility Wind Dir Wind Speed Gust Speed Precip Events Conditions
12:00 AM 75.2 °F - 64.4 °F 69% 30.04 in - NW 13.8 mph - N/A   Clear
1:00 AM 73.4 °F - 64.4 °F 73% 30.01 in - NW 11.5 mph - N/A   Clear
2:00 AM 73 °F - 65 °F 69% 30.01 in 6 mi NW 13.8 mph - -  
2:00 AM 73.4 °F - 64.4 °F 73% 30.01 in - NW 13.8 mph - N/A   Clear
3:00 AM 71.6 °F - 66.2 °F 83% 29.98 in - NNW 11.5 mph - N/A   Clear
4:00 AM 71.6 °F - 66.2 °F 83% 29.98 in - NNW 12.7 mph - N/A   Clear
5:00 AM 69.8 °F - 66.2 °F 88% 29.98 in - North 4.6 mph - N/A   Clear
6:00 AM 71.6 °F - 66.2 °F 83% 30.01 in - North 4.6 mph - N/A   Clear
7:00 AM 75.2 °F - 66.2 °F 73% 30.01 in - NNW 6.9 mph - N/A   Clear
8:00 AM 78 °F - 64 °F 54% 30.01 in 6 mi North 6.9 mph - -  
8:00 AM 77.0 °F - 64.4 °F 65% 30.01 in - North 6.9 mph - N/A   Clear
9:00 AM 78.8 °F - 64.4 °F 61% 30.01 in - North 8.1 mph - N/A   Clear
10:00 AM 80.6 °F 82.3 °F 64.4 °F 58% 30.01 in - North 4.6 mph - N/A   Clear
11:00 AM 82.4 °F 83.4 °F 62.6 °F 51% 30.01 in - North 8.1 mph - N/A   Clear
12:00 PM 84.2 °F 85.0 °F 62.6 °F 48% 30.01 in - North 6.9 mph - N/A   Clear
1:00 PM 84.2 °F 85.6 °F 64.4 °F 51% 30.04 in - North 5.8 mph - N/A   Clear
2:00 PM 86 °F - 57 °F 27% 30.02 in 6 mi NNE 3.5 mph - -  
2:00 PM 86.0 °F 84.9 °F 57.2 °F 37% 30.01 in - NNE 3.5 mph - N/A   Clear
3:00 PM 87.8 °F 86.5 °F 57.2 °F 35% 29.98 in - NE 2.3 mph - N/A   Clear
4:00 PM 84.2 °F 85.6 °F 64.4 °F 51% 29.98 in - NNW 8.1 mph - N/A   Clear
5:00 PM 87.8 °F 86.5 °F 57.2 °F 35% 29.95 in - NE 3.5 mph - N/A   Clear
6:00 PM 84.2 °F 83.8 °F 59.0 °F 42% 29.95 in - NE 3.5 mph - N/A   Clear
7:00 PM 80.6 °F 81.5 °F 60.8 °F 51% 29.95 in - NNE 3.5 mph - N/A   Clear
8:00 PM 77 °F - 64 °F 56% 29.95 in 6 mi East 3.5 mph - -  
8:00 PM 77.0 °F - 64.4 °F 65% 29.95 in - East 3.5 mph - N/A   Clear
9:00 PM 75.2 °F - 64.4 °F 69% 29.95 in - ESE 4.6 mph - N/A   Clear
10:00 PM 75.2 °F - 64.4 °F 69% 29.92 in - East 3.5 mph - N/A   Clear
11:00 PM 73.4 °F - 64.4 °F 73% 29.89 in - ESE 2.3 mph - N/A   Clear